Time,TemperatureF,DewpointF,PressureIn,WindDirection,WindDirectionDegrees,WindSpeedMPH,WindSpeedGustMPH,Humidity,HourlyPrecipIn,Conditions,Clouds,dailyrainin,SoftwareType,DateUTC
2013-07-04 01:01:00,56.0,44.0,-100.00,NE,50,4.0,5.0,62,-99.99,,,0.00,,2013-07-04 07:01:00,
2013-07-04 01:12:00,57.0,44.0,-100.00,NE,35,5.0,6.0,62,-99.99,,,0.00,,2013-07-04 07:12:00,
2013-07-04 01:21:00,57.0,44.0,-100.00,NE,35,5.0,6.0,62,-99.99,,,0.00,,2013-07-04 07:21:00,
2013-07-04 01:34:00,56.0,44.0,-100.00,NE,50,4.0,5.0,62,-99.99,,,0.00,,2013-07-04 07:34:00,
2013-07-04 01:43:00,56.0,44.0,-100.00,NE,50,4.0,5.0,62,-99.99,,,0.00,,2013-07-04 07:43:00,
2013-07-04 01:52:00,56.0,44.0,-100.00,NE,50,4.0,5.0,62,-99.99,,,0.00,,2013-07-04 07:52:00,
2013-07-04 02:01:00,55.0,44.0,-100.00,NE,45,5.0,7.0,66,-99.99,,,0.00,,2013-07-04 08:01:00,
2013-07-04 02:11:00,55.0,44.0,-100.00,ENE,70,3.0,7.0,66,-99.99,,,0.00,,2013-07-04 08:11:00,
2013-07-04 02:21:00,55.0,44.0,-100.00,ENE,70,3.0,7.0,66,-99.99,,,0.00,,2013-07-04 08:21:00,
2013-07-04 02:33:00,55.0,44.0,-100.00,NE,45,5.0,7.0,66,-99.99,,,0.00,,2013-07-04 08:33:00,
2013-07-04 02:42:00,55.0,44.0,-100.00,NE,45,5.0,7.0,66,-99.99,,,0.00,,2013-07-04 08:42:00,
2013-07-04 02:52:00,55.0,44.0,-100.00,NE,45,5.0,7.0,66,-99.99,,,0.00,,2013-07-04 08:52:00,
2013-07-04 03:00:00,54.0,45.0,-100.00,NE,35,2.0,4.0,71,-99.99,,,0.00,,2013-07-04 09:00:00,
2013-07-04 03:22:00,54.0,45.0,-100.00,NNE,20,1.0,3.0,69,-99.99,,,0.00,,2013-07-04 09:22:00,
2013-07-04 03:32:00,54.0,45.0,-100.00,NE,35,2.0,4.0,71,-99.99,,,0.00,,2013-07-04 09:32:00,
2013-07-04 03:42:00,54.0,45.0,-100.00,NE,35,2.0,4.0,71,-99.99,,,0.00,,2013-07-04 09:42:00,
2013-07-04 03:52:00,54.0,45.0,-100.00,NE,35,2.0,4.0,71,-99.99,,,0.00,,2013-07-04 09:52:00,
2013-07-04 04:00:00,53.0,44.0,-100.00,NE,40,4.0,6.0,70,-99.99,,,0.00,,2013-07-04 10:00:00,
2013-07-04 04:11:00,53.0,44.0,-100.00,NE,55,1.0,4.0,71,-99.99,,,0.00,,2013-07-04 10:11:00,
2013-07-04 04:22:00,53.0,44.0,-100.00,NE,55,1.0,4.0,71,-99.99,,,0.00,,2013-07-04 10:22:00,
2013-07-04 04:33:00,53.0,44.0,-100.00,NE,40,4.0,6.0,70,-99.99,,,0.00,,2013-07-04 10:33:00,
2013-07-04 04:42:00,53.0,44.0,-100.00,NE,40,4.0,6.0,70,-99.99,,,0.00,,2013-07-04 10:42:00,
2013-07-04 04:53:00,53.0,44.0,-100.00,NE,40,4.0,6.0,70,-99.99,,,0.00,,2013-07-04 10:53:00,
2013-07-04 05:11:00,52.0,42.0,-100.00,NE,40,3.0,3.0,68,-99.99,,,0.00,,2013-07-04 11:11:00,
2013-07-04 05:22:00,52.0,42.0,-100.00,NE,40,3.0,3.0,68,-99.99,,,0.00,,2013-07-04 11:22:00,
2013-07-04 05:30:00,51.0,44.0,-100.00,East,85,0.0,1.0,77,-99.99,,,0.00,,2013-07-04 11:30:00,
2013-07-04 05:33:00,52.0,43.0,-100.00,ENE,65,1.0,4.0,71,-99.99,,,0.00,,2013-07-04 11:33:00,
2013-07-04 05:43:00,52.0,43.0,-100.00,ENE,65,1.0,4.0,71,-99.99,,,0.00,,2013-07-04 11:43:00,
2013-07-04 05:53:00,52.0,43.0,-100.00,NE,50,2.0,3.0,71,-99.99,,,0.00,,2013-07-04 11:53:00,
2013-07-04 06:01:00,52.0,43.0,-100.00,NE,50,2.0,3.0,71,-99.99,,,0.00,,2013-07-04 12:01:00,
2013-07-04 06:11:00,51.0,44.0,-100.00,East,85,0.0,1.0,77,-99.99,,,0.00,,2013-07-04 12:11:00,
2013-07-04 06:22:00,51.0,44.0,-100.00,East,85,0.0,1.0,77,-99.99,,,0.00,,2013-07-04 12:22:00,
2013-07-04 06:43:00,50.0,44.0,-100.00,NE,40,4.0,4.0,80,-99.99,,,0.00,,2013-07-04 12:43:00,
2013-07-04 07:02:00,52.0,44.0,-100.00,NE,40,2.0,4.0,74,-99.99,,,0.00,,2013-07-04 13:02:00,
2013-07-04 07:22:00,52.0,44.0,-100.00,NE,35,3.0,6.0,76,-99.99,,,0.00,,2013-07-04 13:22:00,
2013-07-04 07:30:00,56.0,46.0,-100.00,North,10,1.0,2.0,67,-99.99,,,0.00,,2013-07-04 13:30:00,
2013-07-04 07:33:00,56.0,45.0,-100.00,NE,45,1.0,1.0,65,-99.99,,,0.00,,2013-07-04 13:33:00,
2013-07-04 07:43:00,56.0,45.0,-100.00,NE,45,1.0,1.0,65,-99.99,,,0.00,,2013-07-04 13:43:00,
2013-07-04 07:53:00,56.0,45.0,-100.00,NE,45,1.0,1.0,65,-99.99,,,0.00,,2013-07-04 13:53:00,
2013-07-04 08:22:00,56.0,46.0,-100.00,North,10,1.0,2.0,67,-99.99,,,0.00,,2013-07-04 14:22:00,
2013-07-04 08:43:00,58.0,46.0,-100.00,North,10,0.0,1.0,65,-99.99,,,0.00,,2013-07-04 14:43:00,
2013-07-04 09:23:00,62.0,48.0,-100.00,WNW,295,1.0,3.0,60,-99.99,,,0.00,,2013-07-04 15:23:00,
2013-07-04 09:33:00,64.0,48.0,-100.00,NNE,30,0.0,1.0,56,-99.99,,,0.00,,2013-07-04 15:33:00,
2013-07-04 09:43:00,64.0,48.0,-100.00,NNE,30,0.0,1.0,56,-99.99,,,0.00,,2013-07-04 15:43:00,
2013-07-04 09:52:00,64.0,48.0,-100.00,NNE,30,0.0,1.0,56,-99.99,,,0.00,,2013-07-04 15:52:00,
2013-07-04 10:02:00,64.0,48.0,-100.00,NNE,30,0.0,1.0,56,-99.99,,,0.00,,2013-07-04 16:02:00,
2013-07-04 10:11:00,67.0,48.0,-100.00,WNW,295,3.0,4.0,51,-99.99,,,0.00,,2013-07-04 16:11:00,
2013-07-04 10:22:00,67.0,48.0,-100.00,WNW,295,3.0,4.0,51,-99.99,,,0.00,,2013-07-04 16:22:00,
2013-07-04 10:33:00,66.0,49.0,-100.00,NW,315,4.0,6.0,53,-99.99,,,0.00,,2013-07-04 16:33:00,
2013-07-04 10:42:00,66.0,49.0,-100.00,NW,315,4.0,6.0,53,-99.99,,,0.00,,2013-07-04 16:42:00,
2013-07-04 11:01:00,69.0,50.0,-100.00,WNW,300,3.0,6.0,51,-99.99,,,0.00,,2013-07-04 17:01:00,
2013-07-04 11:11:00,68.0,48.0,-100.00,NW,320,3.0,6.0,50,-99.99,,,0.00,,2013-07-04 17:11:00,
2013-07-04 11:22:00,68.0,48.0,-100.00,NW,320,3.0,6.0,50,-99.99,,,0.00,,2013-07-04 17:22:00,
2013-07-04 11:33:00,69.0,50.0,-100.00,WNW,300,3.0,6.0,51,-99.99,,,0.00,,2013-07-04 17:33:00,
2013-07-04 11:43:00,69.0,50.0,-100.00,WNW,300,3.0,6.0,51,-99.99,,,0.00,,2013-07-04 17:43:00,
2013-07-04 11:53:00,69.0,50.0,-100.00,WNW,300,3.0,6.0,51,-99.99,,,0.00,,2013-07-04 17:53:00,
2013-07-04 12:22:00,71.0,50.0,-100.00,WNW,295,4.0,7.0,48,-99.99,,,0.00,,2013-07-04 18:22:00,
2013-07-04 12:33:00,71.0,50.0,-100.00,WNW,295,4.0,8.0,48,-99.99,,,0.00,,2013-07-04 18:33:00,
2013-07-04 12:43:00,71.0,50.0,-100.00,WNW,295,4.0,8.0,48,-99.99,,,0.00,,2013-07-04 18:43:00,
2013-07-04 12:52:00,71.0,50.0,-100.00,WNW,295,4.0,8.0,48,-99.99,,,0.00,,2013-07-04 18:52:00,
2013-07-04 13:01:00,71.0,50.0,-100.00,WNW,295,4.0,8.0,48,-99.99,,,0.00,,2013-07-04 19:01:00,
2013-07-04 13:11:00,71.0,51.0,-100.00,NW,305,4.0,8.0,48,-99.99,,,0.00,,2013-07-04 19:11:00,
2013-07-04 13:22:00,71.0,51.0,-100.00,NW,305,4.0,8.0,48,-99.99,,,0.00,,2013-07-04 19:22:00,
2013-07-04 13:33:00,74.0,52.0,-100.00,WNW,285,3.0,6.0,46,-99.99,,,0.00,,2013-07-04 19:33:00,
2013-07-04 13:43:00,74.0,52.0,-100.00,WNW,285,3.0,6.0,46,-99.99,,,0.00,,2013-07-04 19:43:00,
2013-07-04 13:53:00,74.0,52.0,-100.00,WNW,285,3.0,6.0,46,-99.99,,,0.00,,2013-07-04 19:53:00,
2013-07-04 14:00:00,72.0,49.0,-100.00,NW,310,4.0,8.0,43,-99.99,,,0.00,,2013-07-04 20:00:00,
2013-07-04 14:11:00,72.0,50.0,-100.00,NW,320,4.0,9.0,47,-99.99,,,0.00,,2013-07-04 20:11:00,
2013-07-04 14:22:00,72.0,50.0,-100.00,NW,320,4.0,9.0,47,-99.99,,,0.00,,2013-07-04 20:22:00,
2013-07-04 14:33:00,72.0,49.0,-100.00,NW,310,4.0,8.0,43,-99.99,,,0.00,,2013-07-04 20:33:00,
2013-07-04 14:42:00,72.0,49.0,-100.00,NW,310,4.0,8.0,43,-99.99,,,0.00,,2013-07-04 20:42:00,
2013-07-04 14:53:00,72.0,49.0,-100.00,NW,310,4.0,8.0,43,-99.99,,,0.00,,2013-07-04 20:53:00,
2013-07-04 15:11:00,73.0,47.0,-100.00,SW,220,14.0,18.0,40,-99.99,,,0.00,,2013-07-04 21:11:00,
2013-07-04 15:22:00,73.0,47.0,-100.00,SW,220,14.0,18.0,40,-99.99,,,0.00,,2013-07-04 21:22:00,
2013-07-04 15:32:00,72.0,44.0,-100.00,SW,225,11.0,17.0,36,-99.99,,,0.00,,2013-07-04 21:32:00,
2013-07-04 15:43:00,72.0,44.0,-100.00,SW,225,11.0,17.0,36,-99.99,,,0.00,,2013-07-04 21:43:00,
2013-07-04 15:52:00,74.0,44.0,-100.00,SW,225,7.0,13.0,34,-99.99,,,0.00,,2013-07-04 21:52:00,
2013-07-04 16:01:00,74.0,44.0,-100.00,SW,225,7.0,13.0,34,-99.99,,,0.00,,2013-07-04 22:01:00,
2013-07-04 16:11:00,74.0,46.0,-100.00,WSW,245,12.0,19.0,37,-99.99,,,0.00,,2013-07-04 22:11:00,
2013-07-04 16:22:00,74.0,46.0,-100.00,WSW,245,12.0,19.0,37,-99.99,,,0.00,,2013-07-04 22:22:00,
2013-07-04 16:33:00,74.0,44.0,-100.00,WSW,240,5.0,9.0,35,-99.99,,,0.00,,2013-07-04 22:33:00,
2013-07-04 16:43:00,74.0,44.0,-100.00,WSW,240,5.0,9.0,35,-99.99,,,0.00,,2013-07-04 22:43:00,
2013-07-04 16:52:00,74.0,44.0,-100.00,WSW,240,5.0,9.0,35,-99.99,,,0.00,,2013-07-04 22:52:00,
2013-07-04 17:11:00,76.0,47.0,-100.00,West,280,8.0,16.0,37,-99.99,,,0.00,,2013-07-04 23:11:00,
2013-07-04 17:23:00,76.0,47.0,-100.00,West,280,8.0,16.0,37,-99.99,,,0.00,,2013-07-04 23:23:00,
2013-07-04 17:33:00,74.0,47.0,-100.00,West,260,11.0,17.0,38,-99.99,,,0.00,,2013-07-04 23:33:00,
2013-07-04 17:42:00,74.0,47.0,-100.00,West,260,11.0,17.0,38,-99.99,,,0.00,,2013-07-04 23:42:00,
2013-07-04 17:52:00,74.0,47.0,-100.00,West,260,11.0,17.0,38,-99.99,,,0.00,,2013-07-04 23:52:00,
2013-07-04 18:21:00,76.0,44.0,-100.00,WNW,285,10.0,16.0,32,-99.99,,,0.00,,2013-07-05 00:21:00,
2013-07-04 18:32:00,74.0,45.0,-100.00,SW,235,15.0,18.0,36,-99.99,,,0.00,,2013-07-05 00:32:00,
2013-07-04 18:43:00,74.0,45.0,-100.00,SW,235,15.0,18.0,36,-99.99,,,0.00,,2013-07-05 00:43:00,
2013-07-04 18:52:00,74.0,45.0,-100.00,WSW,245,12.0,15.0,36,-99.99,,,0.00,,2013-07-05 00:52:00,
2013-07-04 19:01:00,74.0,45.0,-100.00,WSW,245,12.0,15.0,36,-99.99,,,0.00,,2013-07-05 01:01:00,
2013-07-04 19:11:00,73.0,42.0,-100.00,WSW,240,13.0,19.0,32,-99.99,,,0.00,,2013-07-05 01:11:00,
2013-07-04 19:21:00,73.0,42.0,-100.00,WSW,240,13.0,19.0,32,-99.99,,,0.00,,2013-07-05 01:21:00,
2013-07-04 19:32:00,73.0,46.0,-100.00,SW,235,14.0,21.0,37,-99.99,,,0.00,,2013-07-05 01:32:00,
2013-07-04 19:42:00,73.0,46.0,-100.00,SW,235,14.0,21.0,37,-99.99,,,0.00,,2013-07-05 01:42:00,
2013-07-04 19:52:00,73.0,43.0,-100.00,SW,235,12.0,15.0,34,-99.99,,,0.00,,2013-07-05 01:52:00,
2013-07-04 20:02:00,73.0,43.0,-100.00,SW,235,12.0,15.0,34,-99.99,,,0.00,,2013-07-05 02:02:00,
2013-07-04 20:11:00,73.0,41.0,-100.00,SW,230,13.0,16.0,31,-99.99,,,0.00,,2013-07-05 02:11:00,
2013-07-04 20:21:00,73.0,41.0,-100.00,SW,230,13.0,16.0,31,-99.99,,,0.00,,2013-07-05 02:21:00,
2013-07-04 20:32:00,73.0,38.0,-100.00,WSW,250,12.0,15.0,28,-99.99,,,-99.99,,2013-07-05 02:32:00,
2013-07-04 20:42:00,73.0,38.0,-100.00,WSW,250,12.0,15.0,28,-99.99,,,-99.99,,2013-07-05 02:42:00,
2013-07-04 20:52:00,73.0,43.0,-100.00,WSW,245,7.0,13.0,34,-99.99,,,0.00,,2013-07-05 02:52:00,
2013-07-04 21:02:00,73.0,43.0,-100.00,WSW,245,7.0,13.0,34,-99.99,,,0.00,,2013-07-05 03:02:00,
2013-07-04 21:11:00,73.0,42.0,-100.00,West,280,7.0,10.0,33,-99.99,,,0.00,,2013-07-05 03:11:00,
2013-07-04 21:21:00,73.0,42.0,-100.00,West,280,7.0,10.0,33,-99.99,,,0.00,,2013-07-05 03:21:00,
2013-07-04 21:32:00,72.0,42.0,-100.00,West,275,6.0,8.0,35,-99.99,,,0.00,,2013-07-05 03:32:00,
2013-07-04 21:42:00,72.0,42.0,-100.00,West,275,6.0,8.0,35,-99.99,,,0.00,,2013-07-05 03:42:00,
2013-07-04 21:52:00,68.0,45.0,-100.00,West,270,1.0,4.0,43,-99.99,,,0.00,,2013-07-05 03:52:00,
2013-07-04 22:01:00,68.0,45.0,-100.00,West,270,1.0,4.0,43,-99.99,,,0.00,,2013-07-05 04:01:00,
2013-07-04 22:11:00,64.0,43.0,-100.00,SE,140,2.0,3.0,47,-99.99,,,0.00,,2013-07-05 04:11:00,
2013-07-04 22:21:00,64.0,43.0,-100.00,SE,140,2.0,3.0,47,-99.99,,,0.00,,2013-07-05 04:21:00,
2013-07-04 22:31:00,59.0,43.0,-100.00,NNE,30,3.0,5.0,55,-99.99,,,0.00,,2013-07-05 04:31:00,
2013-07-04 22:33:00,61.0,46.0,-100.00,West,260,1.0,3.0,58,-99.99,,,0.00,,2013-07-05 04:33:00,
2013-07-04 23:12:00,59.0,43.0,-100.00,NNE,30,3.0,5.0,55,-99.99,,,0.00,,2013-07-05 05:12:00,
2013-07-04 23:21:00,59.0,43.0,-100.00,NNE,30,3.0,5.0,55,-99.99,,,0.00,,2013-07-05 05:21:00,